[[{"header":{"parameterUnit":"m.s-1","parameterCategory":2,"la1":30.2991,"la2":30.254,"lo1":-89.0895,"lo2":-89.0444,"dy":0.0017,"dx":0.0017,"nx":28,"ny":28,"refTime":"2024-07-19T09:00:00:Z","depth":"0","parameterNumber":2,"parameterNumberName":"U-component_of_CURRENTS"},"data":[0,0,0,0,0,0,0,0,0,0,0,0,0,0,0,0,0,0,0,0,0,0,0,0,0,0,0,0,0,0,0,0,0,0,0,0,0,0,0,0,0,0,0,0,0,0,0,0,0,0,0,0,0,0,0,0,0,0,-0.2585,-0.2585,0,-0.261,-0.261,-0.261,-0.2578,-0.2578,-0.2577,-0.2576,-0.2525,-0.2525,-0.2524,0,0,0,0,0,0,0,0,0,0,0,0,0,-0.2485,-0.2486,-0.2585,-0.2585,-0.2586,-0.261,-0.261,-0.261,-0.2579,-0.2578,-0.2577,-0.2576,-0.2525,-0.2525,-0.2524,0,0,0,0,0,0,0,0,0,0,0,0,0,-0.2517,-0.2487,-0.2585,-0.2576,-0.2576,-0.261,-0.261,-0.261,-0.2579,-0.2578,-0.2576,-0.2575,-0.2526,-0.2525,-0.2524,-0.2543,0,0,-0.2521,-0.2521,0,0,0,0,0,0,0,0,-0.2516,-0.2521,-0.2577,-0.2577,-0.2576,-0.2593,-0.2556,-0.2585,-0.2579,-0.2574,-0.2576,-0.2575,-0.2544,-0.2542,-0.2545,-0.2541,-0.2539,-0.2521,-0.2521,-0.252,-0.252,0,0,0,0,0,0,0,-0.2513,-0.2519,-0.2591,-0.2577,-0.2577,-0.2562,-0.2566,-0.2561,-0.2561,-0.2574,-0.2573,-0.2582,-0.2543,-0.2546,-0.2543,-0.2538,-0.2521,-0.252,-0.252,-0.252,-0.254,-0.2541,0,0,0,0,0,0,-0.2521,-0.2518,-0.259,-0.2592,-0.2546,-0.2566,-0.2569,-0.2586,-0.2563,-0.256,-0.2583,-0.258,-0.2548,-0.2545,-0.2541,-0.2557,-0.252,-0.2519,-0.2519,-0.2538,-0.254,-0.2541,0,0,0,0,0,0,-0.2519,-0.2527,-0.2589,-0.2557,-0.2565,-0.2569,-0.2588,-0.2587,-0.2587,-0.2571,-0.2565,-0.2583,-0.2547,-0.2543,-0.2542,-0.2555,-0.2519,-0.2518,-0.2537,-0.2539,-0.254,-0.2592,0,0,0,0,0,0,-0.2516,-0.2527,-0.2535,-0.2559,-0.2567,-0.2612,-0.259,-0.2589,-0.2596,-0.2593,-0.257,-0.2564,-0.2546,-0.2544,-0.2541,-0.2553,-0.2518,-0.2536,-0.2538,-0.254,-0.2589,-0.2595,-0.2601,0,0,0,0,0,-0.2512,-0.253,-0.2536,-0.2544,-0.2581,-0.2614,-0.2616,-0.2612,-0.2597,-0.2604,-0.259,-0.2565,-0.2554,-0.2544,-0.2541,-0.2553,-0.2535,-0.2537,-0.254,-0.2586,-0.2594,-0.26,0,0,0,0,0,0,-0.2485,-0.253,-0.2536,-0.2565,-0.259,-0.261,-0.2615,-0.2616,-0.2612,-0.2603,-0.258,-0.2574,-0.2577,-0.2563,-0.2552,-0.2566,-0.254,-0.2542,-0.2577,-0.2584,-0.2589,-0.2585,-0.2517,0,0,0,0,0,-0.2489,-0.2512,-0.2552,-0.2572,-0.2587,-0.2602,-0.2612,-0.2616,-0.2621,-0.2618,-0.2603,-0.259,-0.2588,-0.2583,-0.2575,-0.2586,-0.2561,-0.2592,-0.2598,-0.2603,-0.2598,-0.2588,-0.2592,-0.2549,-0.2549,-0.2549,0,0,-0.248,-0.2509,-0.252,-0.2567,-0.2582,-0.2615,-0.2603,-0.2626,-0.2645,-0.2613,-0.262,-0.2609,-0.2595,-0.2604,-0.2604,-0.2592,-0.2602,-0.2606,-0.261,-0.2602,-0.259,-0.2594,-0.2598,-0.255,-0.255,-0.255,0,0,-0.2484,-0.2507,-0.2533,-0.2563,-0.2602,-0.2618,-0.2628,-0.2654,-0.2655,-0.2673,-0.2652,-0.2652,-0.2646,-0.2641,-0.2638,-0.2674,-0.2632,-0.267,-0.2695,-0.2686,-0.2689,-0.2692,-0.2662,-0.2661,-0.2674,-0.2674,-0.2674,0,-0.2471,-0.2515,-0.2542,-0.2581,-0.2605,-0.2623,-0.2656,-0.267,-0.2689,-0.2692,-0.2679,-0.2675,-0.2665,-0.2676,-0.2689,-0.2686,-0.2664,-0.267,-0.2693,-0.2695,-0.2696,-0.2665,-0.2664,-0.2677,-0.2677,-0.2676,-0.2676,0,-0.2504,-0.2538,-0.2555,-0.2612,-0.2642,-0.2671,-0.2708,-0.2724,-0.2725,-0.2735,-0.2741,-0.273,-0.2724,-0.2728,-0.2719,-0.273,-0.2705,-0.27,-0.2673,-0.2704,-0.2669,-0.2666,-0.2681,-0.268,-0.2679,-0.2678,0,0,-0.246,-0.256,-0.2559,-0.2593,-0.266,-0.2684,-0.2726,-0.2762,-0.2773,-0.2784,-0.279,-0.2798,-0.2782,-0.2777,-0.2765,-0.2761,-0.2758,-0.2737,-0.2735,-0.2703,-0.2718,-0.2637,-0.2626,-0.2755,-0.2755,-0.2755,-0.2688,0,-0.2468,-0.2541,-0.2591,-0.2645,-0.2683,-0.2726,-0.2761,-0.2795,-0.2808,-0.2817,-0.2813,-0.2812,-0.2805,-0.2796,-0.2796,-0.2771,-0.2754,-0.2775,-0.2697,-0.2694,-0.2614,-0.2621,-0.2486,-0.2409,-0.2685,-0.2685,-0.2684,0,-0.2471,-0.2522,-0.2582,-0.2664,-0.2683,-0.2716,-0.2762,-0.2799,-0.2829,-0.2838,-0.2844,-0.2835,-0.2838,-0.2819,-0.279,-0.2803,-0.2761,-0.2736,-0.2732,-0.2634,-0.2608,-0.2424,-0.2393,-0.2379,-0.268,-0.268,-0.2681,0,-0.2408,-0.2505,-0.2548,-0.2579,-0.2678,-0.27,-0.2741,-0.2789,-0.2815,-0.2839,-0.2848,-0.2852,-0.284,-0.2813,-0.2769,-0.278,-0.2716,-0.2725,-0.2606,-0.2599,-0.2455,-0.2436,-0.2394,-0.2684,-0.2685,-0.2685,-0.2685,0,-0.2388,-0.2415,-0.2519,-0.254,-0.2574,-0.2661,-0.2687,-0.2731,-0.2786,-0.2797,-0.2841,-0.2828,-0.2837,-0.2805,-0.2767,-0.2671,-0.2713,-0.2599,-0.2576,-0.2469,-0.2452,-0.241,-0.2444,-0.2682,-0.2683,-0.2683,-0.2684,0,-0.23,-0.2376,-0.2423,-0.2522,-0.2545,-0.256,-0.2649,-0.2663,-0.2741,-0.2754,-0.2762,-0.2809,-0.2764,-0.2749,-0.2692,-0.265,-0.2527,-0.2526,-0.2389,-0.2351,-0.2234,-0.2276,-0.2218,-0.2158,-0.2392,-0.239,-0.2388,0,-0.226,-0.228,-0.2373,-0.2378,-0.2414,-0.246,-0.248,-0.2599,-0.2627,-0.2715,-0.2705,-0.2702,-0.2636,-0.2546,-0.2479,-0.2387,-0.2402,-0.222,-0.222,-0.2197,-0.2228,-0.2279,-0.2237,-0.2049,-0.2044,-0.204,-0.2037,0,-0.2167,-0.22,-0.2231,-0.2238,-0.2258,-0.2288,-0.2341,-0.2357,-0.248,-0.2505,-0.2498,-0.2459,-0.2424,-0.2274,-0.2197,-0.2128,-0.217,-0.2138,-0.2149,-0.1979,-0.1996,-0.1935,-0.2126,-0.2003,-0.2007,-0.2009,-0.2011,-0.2012,-0.2064,-0.2058,-0.2078,-0.205,-0.2065,-0.2033,-0.1963,-0.2024,-0.2011,-0.1932,-0.2171,-0.2025,-0.2117,-0.1979,-0.1933,-0.1821,-0.1912,-0.1756,-0.1814,-0.1871,-0.1799,-0.1907,-0.1744,-0.1746,-0.1748,-0.1749,-0.175,0,-0.1916,-0.1905,-0.1881,-0.1812,-0.1707,-0.1802,-0.1786,-0.1668,-0.1511,-0.1519,-0.1486,-0.1573,-0.1526,-0.1596,-0.1597,-0.1528,-0.1516,-0.1495,-0.1537,-0.1513,-0.1611,-0.1579,-0.133,-0.133,-0.133,-0.133,-0.133,-0.133,-0.1835,-0.1753,-0.1717,-0.1448,-0.1383,-0.1214,-0.1144,-0.0996,-0.0935,-0.075,-0.0714,-0.0774,-0.1143,-0.1495,-0.1491,-0.1416,-0.1417,-0.135,-0.1423,-0.1504,-0.1533,-0.1562,-0.1538,-0.1285,-0.1285,-0.1239,-0.1239,-0.1239]},{"header":{"parameterUnit":"m.s-1","parameterCategory":2,"la1":30.2991,"la2":30.254,"lo1":-89.0895,"lo2":-89.0444,"dy":0.0017,"dx":0.0017,"nx":28,"ny":28,"refTime":"2024-07-19T09:00:00:Z","depth":"0","parameterNumber":3,"parameterNumberName":"V-component_of_CURRENTS"},"data":[0,0,0,0,0,0,0,0,0,0,0,0,0,0,0,0,0,0,0,0,0,0,0,0,0,0,0,0,0,0,0,0,0,0,0,0,0,0,0,0,0,0,0,0,0,0,0,0,0,0,0,0,0,0,0,0,0,0,-0.0057,-0.0057,0,0.0027,0.0028,0.0029,0.0095,0.0096,0.0097,0.0097,0.0202,0.0204,0.0206,0,0,0,0,0,0,0,0,0,0,0,0,0,-0.0116,-0.0115,-0.0058,-0.0057,-0.0056,0.0027,0.0028,0.0029,0.0095,0.0096,0.0097,0.0097,0.0201,0.0204,0.0207,0,0,0,0,0,0,0,0,0,0,0,0,0,-0.0066,-0.0115,-0.0058,-0.0014,-0.0009,0.0027,0.0028,0.003,0.0095,0.0096,0.0097,0.0098,0.02,0.0204,0.0207,0.0212,0,0,0.0218,0.0219,0,0,0,0,0,0,0,0,-0.0069,-0.0064,-0.0021,-0.0017,-0.0011,0.0051,0.0046,0.0091,0.0095,0.0057,0.0097,0.0098,0.0152,0.0159,0.0175,0.0217,0.0221,0.0218,0.022,0.0221,0.0222,0,0,0,0,0,0,0,-0.0073,-0.0067,-0.0023,-0.002,-0.0014,0.0018,0.0025,0.0055,0.01,0.006,0.0065,0.0072,0.0155,0.0171,0.0178,0.0223,0.0218,0.0221,0.0223,0.0224,0.0296,0.0296,0,0,0,0,0,0,-0.0089,-0.007,-0.0026,-0.002,-0.004,0.0018,0.0026,0.0031,0.01,0.011,0.0072,0.0075,0.0165,0.0174,0.0182,0.0195,0.0221,0.0225,0.0227,0.0296,0.0296,0.0296,0,0,0,0,0,0,-0.009,-0.0086,-0.0029,-0.0044,-0.0035,0.0017,0.0022,0.0032,0.0049,0.0108,0.0119,0.0079,0.0166,0.0177,0.0209,0.02,0.0226,0.0229,0.0296,0.0296,0.0296,0.022,0,0,0,0,0,0,-0.0092,-0.0087,-0.0093,-0.0046,-0.0035,-0.0018,0.0022,0.0033,0.0052,0.0058,0.0117,0.0128,0.0167,0.0203,0.0212,0.0205,0.0232,0.0296,0.0296,0.0296,0.0223,0.0217,0.0212,0,0,0,0,0,-0.0095,-0.0112,-0.0094,-0.0088,-0.0044,-0.0018,-0.001,0.0031,0.0051,0.0051,0.0097,0.0126,0.0208,0.0206,0.0216,0.021,0.0296,0.0296,0.0296,0.0225,0.0218,0.0213,0,0,0,0,0,0,-0.0143,-0.0105,-0.0085,-0.0089,-0.0059,-0.0008,-0.0008,0.0023,0.0059,0.0065,0.0124,0.0137,0.0159,0.0196,0.0192,0.0231,0.0257,0.0259,0.02,0.0194,0.0189,0.0174,0.0235,0,0,0,0,0,-0.0157,-0.0157,-0.0113,-0.0118,-0.0107,-0.0058,-0.0044,-0.0015,0.0024,0.0041,0.0084,0.013,0.0165,0.0188,0.0221,0.0242,0.0287,0.0247,0.0241,0.0237,0.0232,0.0289,0.0289,0.0294,0.0294,0.0294,0,0,-0.0177,-0.0157,-0.0157,-0.0128,-0.0102,-0.0099,-0.0048,-0.0034,-0.0026,0.0045,0.0065,0.0109,0.0165,0.0189,0.0203,0.022,0.0259,0.0236,0.0232,0.023,0.0289,0.0289,0.0288,0.0294,0.0294,0.0294,0,0,-0.0227,-0.02,-0.0221,-0.02,-0.0169,-0.0135,-0.0135,-0.0087,-0.0061,-0.0036,0.0017,0.0059,0.0109,0.0155,0.0183,0.0171,0.0225,0.0178,0.0146,0.0201,0.0201,0.0201,0.0258,0.0264,0.0181,0.0181,0.0181,0,-0.0255,-0.0269,-0.0223,-0.0236,-0.0224,-0.0157,-0.0173,-0.0138,-0.0085,-0.0063,-0.0042,0.0047,0.0094,0.0137,0.0134,0.0158,0.0198,0.0162,0.0193,0.0195,0.0197,0.0255,0.0263,0.0177,0.0178,0.0178,0.0179,0,-0.0316,-0.0325,-0.0336,-0.0326,-0.0306,-0.0308,-0.0253,-0.023,-0.0188,-0.0143,-0.0096,-0.0024,0.0034,0.0054,0.0091,0.0126,0.0152,0.0174,0.0205,0.0191,0.0254,0.0263,0.0172,0.0173,0.0175,0.0175,0,0,-0.0385,-0.0383,-0.0387,-0.0397,-0.0352,-0.0345,-0.0326,-0.0286,-0.0265,-0.0207,-0.0174,-0.0106,-0.0053,-0.0017,0.0042,0.0092,0.0142,0.0131,0.0136,0.018,0.0264,0.0325,0.0342,0.0165,0.0167,0.0168,0.0303,0,-0.0449,-0.0502,-0.047,-0.0503,-0.052,-0.0448,-0.0431,-0.0379,-0.0318,-0.0268,-0.0181,-0.0132,-0.0083,-0.0051,0.0006,0.0112,0.0163,0.0103,0.0277,0.0283,0.0333,0.0353,0.0407,0.0535,0.0312,0.0314,0.0315,0,-0.0518,-0.0543,-0.0594,-0.0586,-0.0585,-0.0582,-0.0529,-0.0506,-0.0409,-0.0359,-0.0284,-0.0207,-0.0115,-0.0078,0.009,0.0048,0.0143,0.0223,0.023,0.032,0.0361,0.0514,0.0561,0.0727,0.033,0.0329,0.0328,0,-0.0593,-0.0625,-0.0669,-0.0668,-0.0647,-0.0644,-0.062,-0.0536,-0.0507,-0.0412,-0.0366,-0.0252,-0.0174,-0.0056,0.012,0.0103,0.031,0.0312,0.0455,0.0461,0.0558,0.0571,0.0781,0.0418,0.0418,0.0417,0.0417,0,-0.0669,-0.0703,-0.071,-0.0734,-0.0768,-0.0717,-0.0716,-0.0668,-0.0585,-0.0527,-0.042,-0.0336,-0.0166,-0.0018,0.0114,0.033,0.0313,0.0458,0.0503,0.0534,0.0542,0.0732,0.0785,0.0422,0.0421,0.042,0.0419,0,-0.0737,-0.0746,-0.0798,-0.0803,-0.0807,-0.0826,-0.0792,-0.0777,-0.0687,-0.0603,-0.0574,-0.0391,-0.0182,-0.0001,0.0226,0.0342,0.0638,0.0599,0.0626,0.0671,0.0938,0.0983,0.1215,0.1324,0.077,0.0773,0.0775,0,-0.0778,-0.0814,-0.0859,-0.0882,-0.0887,-0.0904,-0.0903,-0.0842,-0.08,-0.0613,-0.0567,-0.0356,-0.0158,0.019,0.0423,0.0674,0.0772,0.0848,0.0822,0.0977,0.106,0.1076,0.1151,0.0926,0.0929,0.0931,0.0933,0,-0.084,-0.0853,-0.0886,-0.0932,-0.0957,-0.0981,-0.0962,-0.0937,-0.0813,-0.068,-0.0434,-0.0262,0.0057,0.039,0.0668,0.0804,0.0981,0.0907,0.1071,0.1206,0.1236,0.1354,0.0809,0.0956,0.0954,0.0952,0.0951,0.095,-0.0865,-0.0882,-0.0903,-0.0941,-0.0981,-0.097,-0.0939,-0.0861,-0.0719,-0.0437,-0.0278,0.0086,0.0401,0.0821,0.0976,0.1275,0.1201,0.1357,0.1401,0.1405,0.1508,0.101,0.12,0.12,0.1199,0.1198,0.1198,0,-0.0824,-0.0837,-0.0892,-0.09,-0.092,-0.0947,-0.0901,-0.0806,-0.0567,-0.0308,0.0024,0.061,0.0965,0.1219,0.1578,0.1762,0.179,0.1833,0.1877,0.1932,0.1513,0.1518,0.1782,0.1782,0.1782,0.1782,0.1782,0.1781,-0.0791,-0.0784,-0.0795,-0.0795,-0.0814,-0.0764,-0.071,-0.0553,-0.0358,0.0131,0.0537,0.0862,0.1231,0.182,0.2175,0.2202,0.2377,0.2334,0.243,0.2143,0.2102,0.2062,0.2083,0.2461,0.2462,0.2847,0.285,0.2853]}],[{"header":{"parameterUnit":"m.s-1","parameterCategory":2,"la1":30.2991,"la2":30.254,"lo1":-89.0895,"lo2":-89.0444,"dy":0.0017,"dx":0.0017,"nx":28,"ny":28,"refTime":"2024-07-19T09:00:00:Z","depth":"2","parameterNumber":2,"parameterNumberName":"U-component_of_CURRENTS"},"data":[0,0,0,0,0,0,0,0,0,0,0,0,0,0,0,0,0,0,0,0,0,0,0,0,0,0,0,0,0,0,0,0,0,0,0,0,0,0,0,0,0,0,0,0,0,0,0,0,0,0,0,0,0,0,0,0,0,0,-0.2425,-0.2426,0,-0.2461,-0.2461,-0.2461,-0.2439,-0.2438,-0.2438,-0.2437,-0.2408,-0.2408,-0.2408,0,0,0,0,0,0,0,0,0,0,0,0,0,-0.2332,-0.2333,-0.2425,-0.2426,-0.2427,-0.2461,-0.2461,-0.2461,-0.2439,-0.2438,-0.2437,-0.2437,-0.2408,-0.2408,-0.2408,0,0,0,0,0,0,0,0,0,0,0,0,0,-0.2367,-0.2334,-0.2425,-0.2422,-0.2423,-0.2461,-0.2461,-0.2461,-0.244,-0.2438,-0.2437,-0.2436,-0.2408,-0.2408,-0.2408,-0.243,0,0,-0.2408,-0.2408,0,0,0,0,0,0,0,0,-0.2365,-0.2371,-0.2422,-0.2423,-0.2423,-0.2447,-0.2417,-0.2449,-0.244,-0.243,-0.2437,-0.2436,-0.2418,-0.2417,-0.2423,-0.2429,-0.2427,-0.2408,-0.2407,-0.2407,-0.2407,0,0,0,0,0,0,0,-0.2363,-0.2369,-0.2436,-0.2423,-0.2424,-0.2417,-0.242,-0.2423,-0.2426,-0.2431,-0.243,-0.2439,-0.2417,-0.2423,-0.2422,-0.2427,-0.2408,-0.2407,-0.2407,-0.2407,-0.2448,-0.2449,0,0,0,0,0,0,-0.2367,-0.2367,-0.2435,-0.2438,-0.2394,-0.242,-0.2423,-0.2438,-0.2428,-0.2426,-0.244,-0.2438,-0.2424,-0.2422,-0.2421,-0.2446,-0.2407,-0.2407,-0.2407,-0.2447,-0.2448,-0.245,0,0,0,0,0,0,-0.2365,-0.2373,-0.2434,-0.2405,-0.2412,-0.2423,-0.2439,-0.2439,-0.2444,-0.2436,-0.2432,-0.2444,-0.2423,-0.2421,-0.2429,-0.2444,-0.2407,-0.2407,-0.2446,-0.2447,-0.2449,-0.2497,0,0,0,0,0,0,-0.2362,-0.2372,-0.2381,-0.2405,-0.2414,-0.2461,-0.2441,-0.2441,-0.2453,-0.245,-0.2439,-0.2435,-0.2422,-0.243,-0.2429,-0.2444,-0.2407,-0.2444,-0.2446,-0.2448,-0.2494,-0.25,-0.2505,0,0,0,0,0,-0.2359,-0.2376,-0.2381,-0.2389,-0.2428,-0.2462,-0.2466,-0.2467,-0.2454,-0.2465,-0.2457,-0.2435,-0.2443,-0.2431,-0.243,-0.2445,-0.2443,-0.2446,-0.2448,-0.2491,-0.2499,-0.2505,0,0,0,0,0,0,-0.2335,-0.2376,-0.2382,-0.241,-0.2437,-0.246,-0.2469,-0.2472,-0.2476,-0.247,-0.2453,-0.245,-0.2462,-0.2451,-0.2439,-0.2464,-0.2439,-0.2441,-0.2472,-0.2479,-0.2484,-0.248,-0.2407,0,0,0,0,0,-0.2338,-0.2361,-0.2399,-0.2419,-0.2435,-0.2453,-0.2466,-0.2473,-0.2483,-0.2483,-0.2476,-0.2471,-0.2474,-0.2474,-0.2474,-0.2491,-0.2468,-0.25,-0.2505,-0.251,-0.2507,-0.2498,-0.2503,-0.2458,-0.2458,-0.2458,0,0,-0.2332,-0.236,-0.237,-0.2416,-0.2434,-0.2468,-0.2457,-0.2484,-0.2506,-0.248,-0.2497,-0.2491,-0.2484,-0.2501,-0.2505,-0.2492,-0.251,-0.2513,-0.2518,-0.2512,-0.2501,-0.2506,-0.2509,-0.246,-0.2459,-0.2459,0,0,-0.234,-0.2361,-0.2386,-0.2417,-0.2457,-0.2475,-0.2486,-0.2516,-0.252,-0.2547,-0.253,-0.2535,-0.2542,-0.254,-0.254,-0.258,-0.2541,-0.2579,-0.2604,-0.2596,-0.2599,-0.2602,-0.2572,-0.2572,-0.2582,-0.2582,-0.2582,0,-0.233,-0.2372,-0.2397,-0.2436,-0.2462,-0.2481,-0.2517,-0.2535,-0.2561,-0.2567,-0.2557,-0.2567,-0.2562,-0.2578,-0.2592,-0.2592,-0.2571,-0.2578,-0.2602,-0.2605,-0.2606,-0.2575,-0.2574,-0.2585,-0.2585,-0.2584,-0.2584,0,-0.2363,-0.2398,-0.2417,-0.2473,-0.2504,-0.2537,-0.2575,-0.2595,-0.2602,-0.2615,-0.263,-0.2625,-0.2626,-0.2631,-0.2624,-0.2639,-0.2614,-0.261,-0.2582,-0.2613,-0.2579,-0.2577,-0.2589,-0.2588,-0.2587,-0.2586,0,0,-0.2326,-0.2422,-0.2424,-0.2459,-0.2527,-0.2553,-0.2599,-0.2639,-0.2655,-0.2672,-0.2684,-0.2699,-0.2685,-0.2684,-0.2673,-0.2669,-0.2667,-0.2647,-0.2645,-0.2612,-0.263,-0.2549,-0.2538,-0.2665,-0.2665,-0.2665,-0.2599,0,-0.2339,-0.2412,-0.246,-0.252,-0.2558,-0.2602,-0.2641,-0.2679,-0.2697,-0.2712,-0.271,-0.2716,-0.2709,-0.2704,-0.2704,-0.268,-0.2664,-0.2684,-0.261,-0.2607,-0.2526,-0.2534,-0.2343,-0.2263,-0.2597,-0.2596,-0.2596,0,-0.2345,-0.2396,-0.246,-0.2545,-0.2565,-0.2602,-0.2654,-0.2694,-0.2728,-0.2741,-0.275,-0.2744,-0.2749,-0.273,-0.2702,-0.2714,-0.2674,-0.2649,-0.2646,-0.2549,-0.2521,-0.2287,-0.2246,-0.2592,-0.2592,-0.2592,-0.2593,0,-0.2289,-0.2388,-0.2436,-0.2467,-0.2568,-0.2594,-0.2638,-0.2689,-0.2717,-0.2746,-0.2759,-0.2764,-0.2755,-0.2729,-0.2684,-0.2695,-0.2632,-0.264,-0.2523,-0.2516,-0.2327,-0.2303,-0.2603,-0.2603,-0.2603,-0.2603,-0.2603,0,-0.2276,-0.2308,-0.2412,-0.2436,-0.2479,-0.2562,-0.2598,-0.2642,-0.2699,-0.2715,-0.2757,-0.2748,-0.2754,-0.2722,-0.2684,-0.2588,-0.2631,-0.2517,-0.2494,-0.2338,-0.2317,-0.2585,-0.2584,-0.2601,-0.2601,-0.2602,-0.2602,0,-0.2197,-0.2273,-0.2324,-0.2426,-0.2453,-0.2474,-0.2569,-0.2586,-0.2664,-0.2683,-0.2693,-0.2733,-0.2685,-0.2667,-0.261,-0.2568,-0.2499,-0.2446,-0.2254,-0.2209,-0.2387,-0.239,-0.232,-0.2317,-0.2314,-0.2311,-0.2309,0,-0.2162,-0.2184,-0.2282,-0.2292,-0.2332,-0.2387,-0.2412,-0.2532,-0.256,-0.2649,-0.264,-0.2633,-0.2566,-0.2471,-0.2395,-0.2299,-0.2384,-0.2084,-0.2076,-0.2374,-0.2359,-0.2366,-0.2372,-0.1839,-0.1834,-0.1829,-0.1825,0,-0.207,-0.2104,-0.2133,-0.2161,-0.2189,-0.2243,-0.2302,-0.2336,-0.2458,-0.2498,-0.2504,-0.2463,-0.237,-0.2181,-0.208,-0.2006,-0.2095,-0.1986,-0.2331,-0.1952,-0.1919,-0.1905,-0.1927,-0.1784,-0.1788,-0.1791,-0.1793,-0.1795,-0.1966,-0.1945,-0.1968,-0.1988,-0.2027,-0.2057,-0.2057,-0.214,-0.2181,-0.2235,-0.2309,-0.2193,-0.2116,-0.1853,-0.1745,-0.167,-0.1813,-0.1737,-0.1752,-0.1772,-0.174,-0.1704,-0.1521,-0.1524,-0.1526,-0.1528,-0.153,0,-0.1804,-0.1788,-0.179,-0.1797,-0.1782,-0.1873,-0.1938,-0.1908,-0.1905,-0.2009,-0.2025,-0.1743,-0.1595,-0.1516,-0.1331,-0.1301,-0.1297,-0.1247,-0.1243,-0.1283,-0.132,-0.1267,-0.0921,-0.092,-0.0918,-0.0917,0,0,-0.1702,-0.1627,-0.163,-0.1544,-0.1558,-0.149,-0.1507,-0.1505,-0.1545,-0.1529,-0.1503,-0.1641,-0.1517,-0.1258,-0.1177,-0.1029,-0.1164,-0.0976,-0.1461,-0.1501,-0.1536,-0.1587,-0.1549,0,0,0,0,0]},{"header":{"parameterUnit":"m.s-1","parameterCategory":2,"la1":30.2991,"la2":30.254,"lo1":-89.0895,"lo2":-89.0444,"dy":0.0017,"dx":0.0017,"nx":28,"ny":28,"refTime":"2024-07-19T09:00:00:Z","depth":"2","parameterNumber":3,"parameterNumberName":"V-component_of_CURRENTS"},"data":[0,0,0,0,0,0,0,0,0,0,0,0,0,0,0,0,0,0,0,0,0,0,0,0,0,0,0,0,0,0,0,0,0,0,0,0,0,0,0,0,0,0,0,0,0,0,0,0,0,0,0,0,0,0,0,0,0,0,-0.0185,-0.0185,0,-0.0102,-0.0101,-0.01,-0.0039,-0.0038,-0.0038,-0.0037,0.007,0.0073,0.0075,0,0,0,0,0,0,0,0,0,0,0,0,0,-0.024,-0.0239,-0.0185,-0.0185,-0.0184,-0.0102,-0.0101,-0.0099,-0.0039,-0.0038,-0.0038,-0.0037,0.007,0.0072,0.0075,0,0,0,0,0,0,0,0,0,0,0,0,0,-0.0191,-0.0239,-0.0186,-0.0144,-0.014,-0.0102,-0.0101,-0.0099,-0.0039,-0.0038,-0.0037,-0.0037,0.0069,0.0072,0.0076,0.0087,0,0,0.0087,0.0089,0,0,0,0,0,0,0,0,-0.0194,-0.0189,-0.0151,-0.0147,-0.0142,-0.0081,-0.008,-0.0036,-0.0039,-0.0076,-0.0037,-0.0037,0.0021,0.0028,0.0044,0.0092,0.0096,0.0088,0.009,0.0091,0.0093,0,0,0,0,0,0,0,-0.0198,-0.0192,-0.0151,-0.015,-0.0145,-0.0112,-0.0105,-0.0071,-0.0031,-0.0072,-0.0068,-0.0061,0.0024,0.004,0.0047,0.0098,0.0088,0.0091,0.0093,0.0095,0.0181,0.0181,0,0,0,0,0,0,-0.0214,-0.0196,-0.0154,-0.0149,-0.0169,-0.0112,-0.0104,-0.01,-0.0031,-0.0021,-0.0062,-0.0059,0.0034,0.0043,0.0051,0.0077,0.0091,0.0095,0.0097,0.0181,0.0181,0.0181,0,0,0,0,0,0,-0.0216,-0.0211,-0.0157,-0.0171,-0.0162,-0.0112,-0.0108,-0.0099,-0.008,-0.0024,-0.0012,-0.0053,0.0035,0.0046,0.0083,0.0082,0.0097,0.01,0.0181,0.0181,0.0181,0.0124,0,0,0,0,0,0,-0.0218,-0.0212,-0.0218,-0.0172,-0.0162,-0.0142,-0.0109,-0.0098,-0.0078,-0.0073,-0.0013,-0.0002,0.0036,0.0077,0.0086,0.0087,0.0103,0.0181,0.0181,0.0181,0.0126,0.0122,0.0119,0,0,0,0,0,-0.022,-0.0233,-0.0219,-0.0213,-0.017,-0.0142,-0.0134,-0.0095,-0.0078,-0.0075,-0.003,-0.0004,0.0085,0.008,0.0091,0.0093,0.0181,0.0181,0.0181,0.0127,0.0123,0.0119,0,0,0,0,0,0,-0.0261,-0.0227,-0.021,-0.0213,-0.0182,-0.0132,-0.0129,-0.0101,-0.0063,-0.0059,-0.0003,0.0011,0.004,0.0075,0.0068,0.0119,0.0137,0.0139,0.0092,0.0088,0.0085,0.007,0.0106,0,0,0,0,0,-0.0274,-0.0274,-0.0233,-0.0235,-0.0224,-0.0178,-0.0162,-0.0135,-0.0096,-0.0078,-0.0035,0.0011,0.0048,0.0074,0.0108,0.0138,0.0175,0.0147,0.0144,0.0141,0.0137,0.0191,0.0192,0.0181,0.0181,0.0181,0,0,-0.0291,-0.0272,-0.0272,-0.0244,-0.0218,-0.0209,-0.0167,-0.0149,-0.0135,-0.0073,-0.0045,-0.0005,0.0051,0.0083,0.01,0.0114,0.0164,0.0141,0.0137,0.0136,0.0192,0.0193,0.0194,0.0182,0.0182,0.0182,0,0,-0.0331,-0.031,-0.0325,-0.0301,-0.0269,-0.0237,-0.0236,-0.0188,-0.0161,-0.013,-0.0083,-0.0039,0.0015,0.0063,0.0092,0.0092,0.0136,0.0098,0.0079,0.0131,0.0133,0.0134,0.0181,0.0187,0.0105,0.0105,0.0105,0,-0.0356,-0.0365,-0.0324,-0.0328,-0.0314,-0.0255,-0.0262,-0.0226,-0.0171,-0.0147,-0.0132,-0.0039,0.0008,0.006,0.0061,0.0084,0.0116,0.0088,0.0126,0.0129,0.0131,0.0179,0.0187,0.0102,0.0102,0.0103,0.0103,0,-0.04,-0.0405,-0.0412,-0.0395,-0.0372,-0.0369,-0.0314,-0.0288,-0.025,-0.0206,-0.0154,-0.0085,-0.0026,-0.0004,0.0029,0.0072,0.0088,0.0107,0.0133,0.0129,0.018,0.0189,0.0098,0.0099,0.01,0.0101,0,0,-0.0462,-0.0449,-0.0452,-0.0456,-0.0407,-0.0396,-0.0368,-0.0324,-0.0301,-0.0241,-0.0205,-0.0132,-0.0087,-0.0051,0.0004,0.0054,0.0102,0.0082,0.0086,0.0122,0.0212,0.0253,0.0267,0.0124,0.0125,0.0126,0.024,0,-0.0512,-0.0548,-0.0513,-0.0531,-0.0541,-0.0472,-0.0448,-0.0394,-0.0336,-0.0285,-0.0198,-0.0149,-0.0105,-0.0076,-0.0019,0.0072,0.0123,0.0069,0.0217,0.0222,0.0253,0.0278,0.0255,0.0357,0.0249,0.025,0.0251,0,-0.0567,-0.0583,-0.0619,-0.0601,-0.0596,-0.0588,-0.0532,-0.0502,-0.0405,-0.0358,-0.0283,-0.0211,-0.0119,-0.0089,0.0065,0.0026,0.0108,0.0178,0.0185,0.0248,0.0279,0.0346,0.0378,0.0267,0.0266,0.0264,0.0263,0,-0.0639,-0.0652,-0.0687,-0.068,-0.0648,-0.0641,-0.0615,-0.053,-0.0498,-0.0402,-0.0362,-0.0246,-0.0176,-0.0066,0.0088,0.0074,0.0257,0.0262,0.0376,0.038,0.0404,0.0408,0.0361,0.0361,0.0361,0.0361,0.036,0,-0.0704,-0.0729,-0.0727,-0.0745,-0.0772,-0.0713,-0.0708,-0.0658,-0.0573,-0.0522,-0.0409,-0.0333,-0.0168,-0.0036,0.0082,0.0268,0.026,0.038,0.0417,0.0384,0.0385,0.0339,0.0335,0.0365,0.0364,0.0363,0.0362,0,-0.0774,-0.0774,-0.0814,-0.0809,-0.081,-0.0828,-0.0787,-0.0775,-0.0679,-0.0606,-0.0577,-0.0393,-0.0207,-0.0037,0.017,0.0273,0.0433,0.0496,0.0445,0.0475,0.0518,0.0509,0.0631,0.0634,0.0636,0.0638,0.0639,0,-0.0814,-0.0845,-0.088,-0.0912,-0.0915,-0.0927,-0.0932,-0.0849,-0.0816,-0.0628,-0.0594,-0.0391,-0.0221,0.0096,0.031,0.0533,0.0511,0.0622,0.0596,0.0524,0.0548,0.0536,0.0525,0.0605,0.0606,0.0607,0.0608,0,-0.0886,-0.0897,-0.0932,-0.1015,-0.1045,-0.1073,-0.1059,-0.1049,-0.0916,-0.0803,-0.0603,-0.0444,-0.0095,0.0179,0.0456,0.0569,0.0583,0.0649,0.0606,0.0537,0.0509,0.0529,0.0517,0.0616,0.0615,0.0615,0.0614,0.0614,-0.0932,-0.0988,-0.1047,-0.1116,-0.1163,-0.1214,-0.1232,-0.117,-0.1093,-0.0901,-0.0661,-0.0382,-0.007,0.0329,0.0549,0.0714,0.0702,0.0724,0.0718,0.0711,0.0684,0.0661,0.0792,0.0792,0.0792,0.0792,0.0792,0,-0.1,-0.1062,-0.1144,-0.1236,-0.1301,-0.1301,-0.1309,-0.1275,-0.1179,-0.0925,-0.0674,-0.0295,0.0037,0.032,0.062,0.0815,0.0777,0.0812,0.0736,0.0727,0.072,0.069,0.0801,0.0802,0.0802,0.0803,0,0,-0.1042,-0.1144,-0.1197,-0.1334,-0.139,-0.1446,-0.1454,-0.1366,-0.1184,-0.0936,-0.0691,-0.0352,0.0054,0.0266,0.0524,0.0675,0.0639,0.0669,0.0643,0.0517,0.0508,0.0653,0.0597,0,0,0,0,0]}],[{"header":{"parameterUnit":"m.s-1","parameterCategory":2,"la1":30.2991,"la2":30.254,"lo1":-89.0895,"lo2":-89.0444,"dy":0.0017,"dx":0.0017,"nx":28,"ny":28,"refTime":"2024-07-19T09:00:00:Z","depth":"4","parameterNumber":2,"parameterNumberName":"U-component_of_CURRENTS"},"data":[0,0,0,0,0,0,0,0,0,0,0,0,0,0,0,0,0,0,0,0,0,0,0,0,0,0,0,0,0,0,0,0,0,0,0,0,0,0,0,0,0,0,0,0,0,0,0,0,0,0,0,0,0,0,0,0,0,0,-0.175,-0.1751,0,-0.1834,-0.1835,-0.1835,-0.188,-0.188,-0.188,-0.1881,-0.195,-0.1952,-0.1954,0,0,0,0,0,0,0,0,0,0,0,0,0,-0.1639,-0.1641,-0.175,-0.1751,-0.1752,-0.1834,-0.1835,-0.1836,-0.188,-0.188,-0.1881,-0.1881,-0.195,-0.1952,-0.1954,0,0,0,0,0,0,0,0,0,0,0,0,0,-0.17,-0.1641,-0.175,-0.1785,-0.179,-0.1833,-0.1835,-0.1836,-0.188,-0.188,-0.1881,-0.1881,-0.1949,-0.1952,-0.1954,-0.1962,0,0,-0.1962,-0.1963,0,0,0,0,0,0,0,0,-0.1696,-0.1704,-0.1779,-0.1783,-0.1788,-0.1848,-0.1821,-0.1878,-0.188,-0.1844,-0.1881,-0.1881,-0.1916,-0.1921,-0.1934,-0.1966,-0.1969,-0.1962,-0.1963,-0.1964,-0.1965,0,0,0,0,0,0,0,-0.1692,-0.17,-0.1782,-0.178,-0.1786,-0.1801,-0.181,-0.1832,-0.1875,-0.1847,-0.1851,-0.1863,-0.1918,-0.1931,-0.1936,-0.197,-0.1962,-0.1964,-0.1965,-0.1966,-0.2087,-0.2089,0,0,0,0,0,0,-0.1684,-0.1697,-0.1779,-0.1784,-0.1744,-0.1803,-0.1813,-0.1827,-0.1876,-0.1884,-0.1862,-0.1864,-0.1927,-0.1933,-0.1938,-0.2021,-0.1964,-0.1967,-0.1968,-0.2086,-0.2088,-0.209,0,0,0,0,0,0,-0.1682,-0.1691,-0.1776,-0.1743,-0.1755,-0.1804,-0.182,-0.1829,-0.1872,-0.1888,-0.1895,-0.1901,-0.1928,-0.1935,-0.199,-0.2021,-0.1968,-0.197,-0.2084,-0.2086,-0.2089,-0.2141,0,0,0,0,0,0,-0.1678,-0.169,-0.1713,-0.1743,-0.1757,-0.1824,-0.1821,-0.183,-0.1878,-0.1882,-0.1923,-0.1928,-0.1928,-0.1986,-0.1992,-0.2024,-0.1972,-0.2081,-0.2085,-0.2088,-0.2137,-0.2145,-0.2152,0,0,0,0,0,-0.1674,-0.17,-0.1714,-0.1725,-0.1783,-0.1825,-0.1835,-0.1869,-0.1879,-0.1907,-0.1937,-0.1928,-0.2011,-0.199,-0.1997,-0.2029,-0.208,-0.2084,-0.2088,-0.2134,-0.2144,-0.2152,0,0,0,0,0,0,-0.1665,-0.1708,-0.1724,-0.1762,-0.1802,-0.1834,-0.1867,-0.1887,-0.1933,-0.1946,-0.1954,-0.1962,-0.2019,-0.2021,-0.1997,-0.2074,-0.2043,-0.2048,-0.2076,-0.2085,-0.2092,-0.2081,-0.1974,0,0,0,0,0,-0.1673,-0.1706,-0.1745,-0.178,-0.1802,-0.184,-0.1868,-0.1893,-0.193,-0.1952,-0.1979,-0.2009,-0.2035,-0.2059,-0.2082,-0.2129,-0.2105,-0.2154,-0.2161,-0.2167,-0.2163,-0.2161,-0.2167,-0.2103,-0.2103,-0.2102,0,0,-0.1679,-0.1709,-0.1728,-0.1782,-0.1815,-0.1858,-0.1859,-0.1912,-0.1953,-0.1951,-0.2023,-0.2039,-0.2054,-0.2105,-0.213,-0.2114,-0.2174,-0.2172,-0.2177,-0.217,-0.2166,-0.2171,-0.2177,-0.2105,-0.2105,-0.2104,0,0,-0.1701,-0.1736,-0.177,-0.1808,-0.1868,-0.1892,-0.1914,-0.1967,-0.1999,-0.2064,-0.2068,-0.2105,-0.2159,-0.2169,-0.218,-0.2244,-0.2212,-0.2258,-0.229,-0.2288,-0.2293,-0.2296,-0.2269,-0.227,-0.2263,-0.2263,-0.2264,0,-0.1711,-0.1757,-0.1788,-0.1833,-0.1871,-0.1911,-0.1958,-0.1997,-0.2063,-0.2088,-0.2098,-0.2167,-0.2185,-0.2224,-0.2249,-0.2259,-0.2244,-0.2253,-0.2295,-0.2299,-0.2302,-0.2272,-0.2273,-0.2266,-0.2266,-0.2266,-0.2266,0,-0.1749,-0.1802,-0.1827,-0.1895,-0.1939,-0.1989,-0.2041,-0.2092,-0.2134,-0.2163,-0.2223,-0.2244,-0.2278,-0.2295,-0.2296,-0.233,-0.2307,-0.2302,-0.2267,-0.2311,-0.2278,-0.2277,-0.2271,-0.227,-0.2269,-0.2268,0,0,-0.1725,-0.1834,-0.1845,-0.1891,-0.1979,-0.2015,-0.2088,-0.2152,-0.2191,-0.2251,-0.2291,-0.2344,-0.2347,-0.2358,-0.2361,-0.2365,-0.2376,-0.2349,-0.2348,-0.2311,-0.2355,-0.2203,-0.2187,-0.238,-0.2381,-0.2381,-0.2321,0,-0.1749,-0.1837,-0.1888,-0.1977,-0.2025,-0.2088,-0.2148,-0.2211,-0.226,-0.2308,-0.2329,-0.2371,-0.2373,-0.239,-0.2398,-0.2386,-0.2378,-0.2391,-0.2327,-0.2325,-0.2175,-0.2182,-0.2382,-0.232,-0.232,-0.2319,-0.2319,0,-0.1758,-0.1822,-0.1911,-0.2018,-0.2045,-0.2106,-0.2196,-0.2255,-0.2321,-0.2357,-0.2394,-0.2407,-0.2434,-0.2422,-0.2415,-0.2425,-0.2395,-0.2375,-0.2372,-0.2207,-0.217,-0.2269,-0.2317,-0.2317,-0.2317,-0.2318,-0.2318,0,-0.1707,-0.1831,-0.1904,-0.1944,-0.207,-0.2123,-0.2188,-0.2269,-0.2316,-0.2381,-0.2409,-0.2439,-0.2451,-0.2437,-0.2405,-0.2417,-0.2368,-0.2377,-0.2203,-0.2191,-0.2324,-0.232,-0.2352,-0.2352,-0.2352,-0.2352,-0.2352,0,-0.1689,-0.175,-0.1892,-0.1931,-0.2014,-0.2109,-0.2188,-0.2251,-0.2332,-0.2361,-0.2426,-0.2425,-0.2458,-0.2434,-0.2404,-0.2285,-0.2366,-0.2193,-0.2163,-0.2348,-0.2348,-0.2322,-0.232,-0.235,-0.235,-0.2351,-0.2351,0,-0.1609,-0.1709,-0.1797,-0.1943,-0.1993,-0.2047,-0.2186,-0.2218,-0.232,-0.2355,-0.2376,-0.2423,-0.2374,-0.237,-0.2327,-0.2258,-0.2178,-0.2113,-0.2291,-0.2275,-0.2005,-0.2006,-0.1915,-0.1909,-0.1904,-0.1899,-0.1896,0,-0.1572,-0.1614,-0.178,-0.1819,-0.189,-0.1993,-0.2044,-0.2187,-0.2216,-0.2319,-0.2304,-0.2308,-0.2308,-0.2112,-0.2137,-0.2044,-0.2021,-0.198,-0.2009,-0.1978,-0.1959,-0.1968,-0.1976,-0.1888,-0.1887,-0.1885,-0.1884,0,-0.148,-0.1554,-0.1613,-0.1705,-0.1777,-0.1856,-0.1947,-0.1968,-0.2098,-0.2221,-0.2159,-0.2115,-0.2044,-0.1985,-0.1917,-0.1861,-0.2014,-0.1927,-0.1938,-0.1965,-0.1945,-0.1933,-0.1947,-0.1866,-0.1869,-0.1871,-0.1872,0,-0.1392,-0.1401,-0.1478,-0.1546,-0.1631,-0.1664,-0.1756,-0.1785,-0.1847,-0.1985,-0.195,-0.1952,-0.2009,-0.1886,-0.1828,-0.1754,-0.1735,-0.1699,-0.1722,-0.1741,-0.1712,-0.1663,-0.1455,0,0,0,0,0,-0.1284,-0.1265,-0.1308,-0.1367,-0.145,-0.1506,-0.1646,-0.1739,-0.1891,-0.1794,-0.1875,-0.1798,-0.1707,-0.1713,-0.1593,-0.174,-0.1737,-0.1596,-0.1709,-0.177,-0.179,-0.1771,0,0,0,0,0,0,-0.1199,-0.1214,-0.1239,-0.1198,-0.1207,-0.128,-0.1366,-0.1485,-0.1457,-0.1612,-0.1558,-0.1681,-0.1601,-0.1715,-0.1541,-0.1545,-0.1582,-0.1624,-0.1619,-0.1758,-0.1776,-0.1793,-0.178,0,0,0,0,0]},{"header":{"parameterUnit":"m.s-1","parameterCategory":2,"la1":30.2991,"la2":30.254,"lo1":-89.0895,"lo2":-89.0444,"dy":0.0017,"dx":0.0017,"nx":28,"ny":28,"refTime":"2024-07-19T09:00:00:Z","depth":"4","parameterNumber":3,"parameterNumberName":"V-component_of_CURRENTS"},"data":[0,0,0,0,0,0,0,0,0,0,0,0,0,0,0,0,0,0,0,0,0,0,0,0,0,0,0,0,0,0,0,0,0,0,0,0,0,0,0,0,0,0,0,0,0,0,0,0,0,0,0,0,0,0,0,0,0,0,-0.0188,-0.0187,0,-0.0126,-0.0125,-0.0124,-0.0082,-0.0082,-0.0082,-0.0082,0.0013,0.0015,0.0018,0,0,0,0,0,0,0,0,0,0,0,0,0,-0.022,-0.022,-0.0188,-0.0187,-0.0186,-0.0126,-0.0125,-0.0124,-0.0082,-0.0082,-0.0082,-0.0082,0.0012,0.0015,0.0018,0,0,0,0,0,0,0,0,0,0,0,0,0,-0.0186,-0.022,-0.0188,-0.0159,-0.0156,-0.0126,-0.0125,-0.0124,-0.0082,-0.0082,-0.0082,-0.0082,0.0011,0.0015,0.0018,0.0035,0,0,0.0029,0.0031,0,0,0,0,0,0,0,0,-0.0188,-0.0185,-0.0164,-0.0161,-0.0158,-0.0113,-0.0102,-0.007,-0.0083,-0.0109,-0.0082,-0.0082,-0.0027,-0.002,-0.0008,0.004,0.0044,0.0029,0.0032,0.0033,0.0034,0,0,0,0,0,0,0,-0.019,-0.0187,-0.0162,-0.0164,-0.016,-0.0133,-0.0128,-0.0095,-0.0068,-0.0107,-0.0104,-0.0099,-0.0025,-0.0011,-0.0005,0.0045,0.0029,0.0033,0.0035,0.0036,0.0127,0.0127,0,0,0,0,0,0,-0.0204,-0.0189,-0.0164,-0.016,-0.0174,-0.0133,-0.0127,-0.0126,-0.0069,-0.0061,-0.01,-0.0098,-0.0018,-0.0009,-0.0002,0.0031,0.0033,0.0036,0.0039,0.0127,0.0127,0.0128,0,0,0,0,0,0,-0.0205,-0.0202,-0.0166,-0.0174,-0.0168,-0.0133,-0.0132,-0.0125,-0.0112,-0.0065,-0.0056,-0.0094,-0.0017,-0.0007,0.0029,0.0035,0.0038,0.0041,0.0127,0.0127,0.0127,0.0091,0,0,0,0,0,0,-0.0206,-0.0203,-0.0209,-0.0175,-0.0168,-0.0153,-0.0132,-0.0124,-0.011,-0.0107,-0.0057,-0.0047,-0.0016,0.0023,0.0032,0.004,0.0044,0.0126,0.0127,0.0127,0.0092,0.0091,0.0089,0,0,0,0,0,-0.0208,-0.0217,-0.021,-0.0207,-0.0177,-0.0153,-0.0147,-0.012,-0.0111,-0.0107,-0.007,-0.0049,0.0033,0.0026,0.0037,0.0046,0.0126,0.0127,0.0127,0.0093,0.0091,0.0089,0,0,0,0,0,0,-0.0235,-0.0213,-0.0204,-0.0207,-0.0185,-0.0147,-0.0144,-0.0124,-0.0093,-0.0091,-0.0045,-0.0033,-0.0003,0.0027,0.0018,0.0074,0.0083,0.0086,0.0053,0.0052,0.005,0.0038,0.0047,0,0,0,0,0,-0.0245,-0.0247,-0.0218,-0.0221,-0.0214,-0.018,-0.0169,-0.0149,-0.0117,-0.0103,-0.0067,-0.0027,0.0008,0.0033,0.0064,0.0098,0.0126,0.0111,0.0109,0.0108,0.0105,0.0156,0.0158,0.013,0.013,0.013,0,0,-0.0259,-0.0246,-0.0248,-0.0228,-0.021,-0.0199,-0.0172,-0.0159,-0.0143,-0.0098,-0.0069,-0.0036,0.0013,0.0048,0.0065,0.0075,0.013,0.0108,0.0107,0.0105,0.0157,0.0159,0.0162,0.013,0.013,0.013,0,0,-0.0284,-0.0274,-0.0284,-0.0265,-0.0242,-0.0218,-0.0217,-0.0181,-0.0159,-0.0129,-0.0092,-0.0052,-0.0003,0.0042,0.007,0.0081,0.0112,0.0086,0.0079,0.0128,0.013,0.0133,0.0166,0.0172,0.0094,0.0094,0.0094,0,-0.0302,-0.0308,-0.0282,-0.028,-0.0269,-0.023,-0.0231,-0.0201,-0.0155,-0.0135,-0.0127,-0.0043,-0.0002,0.0055,0.0058,0.0078,0.01,0.008,0.0125,0.0128,0.0132,0.0165,0.0172,0.0092,0.0093,0.0093,0.0093,0,-0.0325,-0.0331,-0.0334,-0.0319,-0.0301,-0.0296,-0.0253,-0.0231,-0.0204,-0.0168,-0.0119,-0.0061,-0.0008,0.0013,0.0039,0.0087,0.0092,0.0109,0.0127,0.0132,0.0167,0.0175,0.009,0.0091,0.0091,0.0092,0,0,-0.0367,-0.0356,-0.036,-0.0362,-0.0322,-0.0313,-0.0283,-0.0245,-0.0225,-0.0174,-0.0142,-0.0071,-0.004,-0.0006,0.0039,0.0086,0.013,0.0102,0.0105,0.0128,0.0223,0.0208,0.0216,0.015,0.0151,0.0153,0.0235,0,-0.0397,-0.042,-0.0392,-0.0402,-0.0408,-0.0356,-0.0332,-0.0286,-0.0241,-0.0198,-0.0123,-0.0081,-0.0045,-0.0023,0.0032,0.0103,0.015,0.0105,0.0219,0.0222,0.0204,0.0224,0.0157,0.0241,0.0243,0.0244,0.0245,0,-0.0429,-0.0441,-0.0466,-0.0451,-0.0447,-0.0441,-0.0397,-0.0368,-0.0287,-0.025,-0.0183,-0.0126,-0.0042,-0.0021,0.0112,0.0077,0.0143,0.0199,0.0204,0.0208,0.0223,0.0238,0.026,0.0259,0.0258,0.0257,0.0256,0,-0.0482,-0.0489,-0.0516,-0.0511,-0.0485,-0.0482,-0.0463,-0.0393,-0.0366,-0.0285,-0.0256,-0.0148,-0.0095,0.0003,0.0125,0.0116,0.0263,0.0272,0.0322,0.0322,0.0325,0.0322,0.0361,0.0361,0.0361,0.0361,0.0361,0,-0.052,-0.0542,-0.0552,-0.0566,-0.0596,-0.0545,-0.0548,-0.0505,-0.0436,-0.0398,-0.0295,-0.0234,-0.0089,0.002,0.0119,0.0246,0.0266,0.0323,0.0346,0.0307,0.0301,0.0331,0.0326,0.0364,0.0363,0.0363,0.0362,0,-0.0568,-0.0573,-0.0613,-0.0618,-0.0626,-0.0648,-0.0627,-0.0618,-0.0538,-0.0484,-0.046,-0.0298,-0.0149,-0.0004,0.0169,0.0237,0.036,0.04,0.0341,0.036,0.0383,0.0376,0.0457,0.0458,0.0458,0.0458,0.0458,0,-0.0593,-0.0622,-0.0674,-0.0714,-0.0726,-0.0749,-0.0762,-0.0692,-0.0665,-0.0512,-0.0486,-0.0323,-0.0207,0.0028,0.0179,0.0365,0.0389,0.0437,0.0414,0.038,0.0395,0.0387,0.038,0.0458,0.0458,0.0459,0.0459,0,-0.0641,-0.0669,-0.0706,-0.08,-0.0843,-0.0877,-0.0878,-0.0862,-0.075,-0.0674,-0.0495,-0.0334,-0.0161,0.0032,0.0176,0.0312,0.0395,0.0439,0.0439,0.0418,0.0383,0.0396,0.0388,0.0459,0.0459,0.0459,0.0459,0,-0.0681,-0.0732,-0.0797,-0.0869,-0.0939,-0.0981,-0.0973,-0.0905,-0.0851,-0.0652,-0.0588,-0.0359,-0.0205,0.0007,0.0148,0.0272,0.0296,0.0314,0.0321,0.0322,0.0256,0.0189,0.023,0,0,0,0,0,-0.0713,-0.0776,-0.0858,-0.094,-0.1011,-0.1041,-0.1033,-0.0996,-0.0877,-0.0765,-0.0665,-0.0485,-0.0215,-0.0079,0.004,0.0111,0.0279,0.0249,0.0291,0.0463,0.0463,0.0407,0,0,0,0,0,0,-0.074,-0.0826,-0.0867,-0.0978,-0.1039,-0.1105,-0.1103,-0.1027,-0.0939,-0.079,-0.0645,-0.0483,-0.0232,-0.0289,0.0035,0.0081,0.0116,0.0403,0.0405,0.0464,0.0463,0.0462,0.0405,0,0,0,0,0]}]]